This is the latest recevied weather packets stored in our database for station/object KD8OZS. If no packets are shown the sender has not sent any weather packets the latest 10 day(s).
| Time | Temp. | Humidity | Pressure | Rain* | Wind** | Luminosity | Snow |
|---|---|---|---|---|---|---|---|
| 1777051351 | 25.56° C | 52% | 1001.4 hPa | 0 mm | - | 594 W/m² | - |
| 1777051046 | 25.56° C | 52% | 1001.6 hPa | 0 mm | - | 453 W/m² | - |
| 1777050743 | 25.56° C | 53% | 1001.8 hPa | 0 mm | - | 613 W/m² | - |
| 1777050443 | 26.11° C | 54% | 1001.5 hPa | 0 mm | - | 195 W/m² | - |
| 1777050138 | 25.56° C | 54% | 1001.6 hPa | 0 mm | - | 527 W/m² | - |
| 1777049833 | 25° C | 56% | 1001.8 hPa | 0 mm | - | 222 W/m² | - |
| 1777049529 | 25.56° C | 52% | 1001.9 hPa | 0 mm | - | 155 W/m² | - |
| 1777049227 | 26.67° C | 53% | 1001.7 hPa | 0 mm | - | 478 W/m² | - |
| 1777048922 | 26.11° C | 53% | 1001.9 hPa | 0 mm | - | 413 W/m² | - |
| 1777048617 | 25.56° C | 54% | 1002.2 hPa | 0 mm | - | 255 W/m² | - |
| 1777048313 | 25.56° C | 53% | 1002.2 hPa | 0 mm | - | 198 W/m² | - |
| 1777048007 | 25.56° C | 53% | 1002 hPa | 0 mm | - | 321 W/m² | - |
| 1777047703 | 25.56° C | 55% | 1002.1 hPa | 0 mm | - | 273 W/m² | - |
| 1777047399 | 25.56° C | 55% | 1002.2 hPa | 0 mm | - | 172 W/m² | - |
| 1777047094 | 25.56° C | 56% | 1002.3 hPa | 0 mm | - | 180 W/m² | - |
| 1777046793 | 25.56° C | 54% | 1002.2 hPa | 0 mm | - | 206 W/m² | - |
| 1777046488 | 25.56° C | 55% | 1002.3 hPa | 0 mm | - | 229 W/m² | - |
| 1777046184 | 25° C | 55% | 1002.1 hPa | 0 mm | - | 184 W/m² | - |
| 1777045879 | 25° C | 55% | 1002.2 hPa | 0 mm | - | 160 W/m² | - |
| 1777045576 | 25° C | 56% | 1002 hPa | 0 mm | - | 540 W/m² | - |
| 1777045271 | 25° C | 56% | 1002.2 hPa | 0 mm | - | 233 W/m² | - |
| 1777044968 | 25° C | 54% | 1002.2 hPa | 0 mm | - | 187 W/m² | - |
| 1777044663 | 25° C | 58% | 1002.2 hPa | 0 mm | - | 152 W/m² | - |
| 1777044360 | 24.44° C | 58% | 1002.3 hPa | 0 mm | - | 154 W/m² | - |
| 1777044060 | 25° C | 55% | 1002.2 hPa | 0 mm | - | 161 W/m² | - |
* Rain latest hour (hover to see other rain measurements)
** Current wind speed in m/s (hover to see current wind gust speed)